Weather History for Tiree, United Kingdom

Change the Weather History Date:

Monday, December 31, 2012

  Actual Average Record
Temperature  
Mean Temperature 42 °F -  
Max Temperature 48 °F 45 °F 51 °F (2011)
Min Temperature 37 °F 37 °F 28 °F (1996)
Degree Days  
Heating Degree Days 22    
Moisture  
Dew Point 39 °F    
Average Humidity 82    
Maximum Humidity 94    
Minimum Humidity 56    
Precipitation  
Precipitation 0.16 in 0.17 in - ()
Sea Level Pressure  
Sea Level Pressure 29.08 in    
Wind  
Wind Speed 24 mph ()    
Max Wind Speed 38 mph    
Max Gust Speed 50 mph    
Visibility 6.2 miles    
Events Rain    
Averages and records for this station are not official NWS values.
T = Trace of Precipitation, MM = Missing Value Source: Averaged Metar Reports

Daily Weather History Graph

Daily Weather History Graph

Search for Another Location

Airport:

Trip Planner

Search our weather history database for the weather conditions in past years. The results will help you decide how hot, cold, wet, or windy it might be!

Date:

Astronomy

Dec. 31, 2012 Rise Set
Actual Time 9:02 AM GMT 3:59 PM GMT
Civil Twilight 8:14 AM GMT 4:47 PM GMT
Nautical Twilight 7:24 AM GMT 5:37 PM GMT
Astronomical Twilight 6:38 AM GMT 6:23 PM GMT
Moon 7:59 PM GMT (12/31) 9:57 AM GMT (12/31)
Length of Visible Light 8h 32m
Length of Day
6h 57m
Waning Gibbous, 91% of the Moon is Illuminated
Dec 31
Waning Gibbous
Jan 5
Last Quarter
Jan 11
New
Jan 18
First Quarter
Jan 27
Full

Hourly Weather History & Observations

Time (GMT) Temp. Windchill Dew Point Humidity Pressure Visibility Wind Dir Wind Speed Gust Speed Precip Events Conditions
12:20 AM 50.0 °F - 48.2 °F 94% 29.03 in 3.1 mi SW 31.1 mph - N/A Rain Rain
12:50 AM 50.0 °F - 48.2 °F 94% 29.03 in 1.6 mi SW 33.4 mph - N/A Rain Light Rain
1:20 AM 50.0 °F - 48.2 °F 94% 29.00 in 2.5 mi SW 32.2 mph 44.9 mph N/A Rain Rain
1:50 AM 50.0 °F - 48.2 °F 94% 29.00 in 3.1 mi SW 34.5 mph 47.2 mph N/A Rain Light Rain
2:20 AM 50.0 °F - 48.2 °F 94% 28.97 in 5.0 mi SW 33.4 mph - N/A Rain Rain Showers
2:50 AM 49 °F - 47 °F 92% 28.98 in 6 mi SW 31.1 mph - - Rain Rain
2:50 AM 50.0 °F - 48.2 °F 94% 28.97 in 5.0 mi SW 31.1 mph 44.9 mph N/A   Mostly Cloudy
3:20 AM 50.0 °F - 46.4 °F 87% 28.94 in 5.0 mi SW 29.9 mph - N/A   Mostly Cloudy
3:50 AM 50.0 °F - 46.4 °F 87% 28.91 in 4.3 mi SW 31.1 mph - N/A   Mostly Cloudy
4:20 AM 50.0 °F - 46.4 °F 87% 28.91 in 4.3 mi SW 31.1 mph 44.9 mph N/A   Mostly Cloudy
4:50 AM 50.0 °F - 44.6 °F 82% 28.88 in 4.3 mi SSW 32.2 mph 44.9 mph N/A   Scattered Clouds
5:20 AM 50.0 °F - 44.6 °F 82% 28.85 in 4.3 mi SSW 32.2 mph 47.2 mph N/A Rain Light Rain
5:50 AM 48 °F - 46 °F 89% 28.83 in 2 mi SSW 32.2 mph - - Rain Rain Showers
5:50 AM 48.2 °F - 46.4 °F 93% 28.82 in - SSW 32.2 mph - N/A Rain Rain Showers
6:20 AM 48.2 °F - 46.4 °F 93% 28.80 in 1.7 mi SW 38.0 mph 49.5 mph N/A Rain Light Rain
6:50 AM 48.2 °F - 46.4 °F 93% 28.82 in 4.3 mi WSW 24.2 mph - N/A   Mostly Cloudy
7:20 AM 48.2 °F - 46.4 °F 93% 28.85 in 6.2 mi West 23.0 mph - N/A   Partly Cloudy
7:50 AM 44.6 °F 35.1 °F 42.8 °F 93% 28.88 in - NW 27.6 mph - N/A Rain Light Rain Showers
8:20 AM 42.8 °F 32.9 °F 39.2 °F 87% 28.94 in 6.2 mi NNW 26.5 mph - N/A   Mostly Cloudy
8:50 AM 44 °F - 39 °F 78% 28.98 in 12 mi NNW 26.5 mph - - Rain Rain
8:50 AM 44.6 °F 35.3 °F 39.2 °F 81% 28.97 in 6.2 mi NNW 26.5 mph - N/A   Scattered Clouds
9:20 AM 42.8 °F 33.1 °F 39.2 °F 87% 29.00 in 6.2 mi NW 25.3 mph - N/A   Scattered Clouds
9:50 AM 42.8 °F 33.5 °F 37.4 °F 81% 29.06 in 6.2 mi NW 23.0 mph - N/A Rain Light Rain Showers
10:20 AM 42.8 °F 32.7 °F 37.4 °F 81% 29.09 in 6.2 mi NW 27.6 mph - N/A Rain Light Rain Showers
10:50 AM 42.8 °F 34.3 °F 35.6 °F 76% 29.09 in 6.2 mi NW 19.6 mph - N/A   Partly Cloudy
11:20 AM 42.8 °F 34.5 °F 35.6 °F 76% 29.12 in 6.2 mi NW 18.4 mph - N/A   Scattered Clouds
11:50 AM 44 °F - 33 °F 56% 29.13 in 14 mi WNW 21.9 mph - - Rain Rain
11:50 AM 44.6 °F 36.1 °F 33.8 °F 66% 29.12 in 6.2 mi WNW 21.9 mph - N/A   Scattered Clouds
12:20 PM 42.8 °F 35.4 °F 35.6 °F 76% 29.12 in 6.2 mi WNW 15.0 mph - N/A   Scattered Clouds
12:50 PM 42.8 °F 36.2 °F 35.6 °F 76% 29.15 in 6.2 mi WNW 12.7 mph - N/A   Scattered Clouds
1:50 PM 42.8 °F 34.0 °F 32.0 °F 66% 29.15 in 6.2 mi West 20.7 mph - N/A   Scattered Clouds
2:20 PM 41.0 °F 32.8 °F 35.6 °F 81% 29.15 in 6.2 mi WNW 16.1 mph - N/A   Partly Cloudy
2:50 PM 41 °F - 35 °F 72% 29.18 in 16 mi West 17.3 mph - - Rain Rain
2:50 PM 41.0 °F 32.5 °F 35.6 °F 81% 29.15 in 6.2 mi West 17.3 mph - N/A   Unknown
3:20 PM 41.0 °F 32.5 °F 35.6 °F 81% 29.18 in 6.2 mi West 17.3 mph 32.2 mph N/A   Partly Cloudy
3:50 PM 41.0 °F 32.2 °F 33.8 °F 76% 29.18 in 6.2 mi West 18.4 mph - N/A   Unknown
4:20 PM 41.0 °F 31.9 °F 35.6 °F 81% 29.18 in 6.2 mi WNW 19.6 mph - N/A Rain Light Rain Showers
4:50 PM 39.2 °F 31.2 °F 33.8 °F 81% 29.18 in 6.2 mi West 13.8 mph - N/A   Partly Cloudy
5:20 PM 37.4 °F 26.4 °F 35.6 °F 93% 29.18 in 6.2 mi NW 23.0 mph - N/A   Mostly Cloudy
5:50 PM 39 °F - 33 °F 73% 29.21 in 12 mi WNW 21.9 mph - - Rain Light Rain Showers
5:50 PM 39.2 °F 29.0 °F 33.8 °F 81% 29.18 in 6.2 mi WNW 21.9 mph - N/A Rain Light Rain Showers
6:20 PM 39.2 °F 30.2 °F 33.8 °F 81% 29.21 in 6.2 mi West 17.3 mph - N/A Rain Light Rain Showers
6:50 PM 41.0 °F 31.1 °F 32.0 °F 70% 29.21 in 6.2 mi West 23.0 mph - N/A   Partly Cloudy
7:20 PM 41.0 °F 31.6 °F 32.0 °F 70% 29.21 in 6.2 mi West 20.7 mph - N/A   Unknown
7:50 PM 39.2 °F 30.8 °F 32.0 °F 75% 29.21 in 6.2 mi West 15.0 mph - N/A Rain Light Rain
8:20 PM 37.4 °F 27.5 °F 33.8 °F 87% 29.21 in 4.3 mi WNW 18.4 mph 31.1 mph N/A Rain Rain Showers
8:50 PM 40 °F - 35 °F 77% 29.22 in 11 mi WNW 12.7 mph - - Rain Rain
8:50 PM 39.2 °F 31.6 °F 35.6 °F 87% 29.21 in 6.2 mi WNW 12.7 mph - N/A   Partly Cloudy
9:20 PM 41.0 °F 31.4 °F 33.8 °F 76% 29.21 in 6.2 mi West 21.9 mph - N/A   Partly Cloudy
9:50 PM 39.2 °F 29.8 °F 35.6 °F 87% 29.21 in 3.7 mi West 18.4 mph - N/A Rain Rain Showers
10:20 PM 41.0 °F 31.1 °F 33.8 °F 76% 29.24 in 6.2 mi WNW 23.0 mph - N/A   Unknown
10:50 PM 41.0 °F 31.4 °F 32.0 °F 70% 29.24 in 6.2 mi West 21.9 mph - N/A   Mostly Cloudy
11:20 PM 39.2 °F 30.2 °F 33.8 °F 81% 29.24 in 6.2 mi West 17.3 mph - N/A   Unknown
11:50 PM 40 °F - 34 °F 70% 29.26 in 12 mi West 16.1 mph - -   Scattered Clouds
11:50 PM 41.0 °F 32.8 °F 33.8 °F 76% 29.24 in 6.2 mi West 16.1 mph - N/A   Unknown